Weyers Cave, VA

10:34 AM EST on February 23, 2017 (GMT -0500)
Shenandoah Valley Regional

Weather History for KSHD - February, 2013

Change the Weather History Date:

Monday, February 4, 2013

  Actual Average Record
Temperature  
Mean Temperature 31 °F -  
Max Temperature 39 °F 45 °F 59 °F (1999)
Min Temperature 23 °F 25 °F 10 °F (2009)
Degree Days  
Heating Degree Days 34    
Moisture  
Dew Point 16 °F    
Average Humidity 52    
Maximum Humidity 72    
Minimum Humidity 42    
Precipitation  
Precipitation 0.00 in - - ()
Sea Level Pressure  
Sea Level Pressure 29.96 in    
Wind  
Wind Speed 6 mph (SSW)    
Max Wind Speed 15 mph    
Max Gust Speed 17 mph    
Visibility 10 miles    
Events Snow    
Averages and records for this station are not official NWS values.
T = Trace of Precipitation, MM = Missing Value Source: NWS Daily Summary

Daily Weather History Graph

Daily Weather History Graph

Search for Another Location

Airport or City:

Trip Planner

Search our weather history database for the weather conditions in past years. The results will help you decide how hot, cold, wet, or windy it might be!

Date:

Astronomy

Feb. 04, 2013 Rise Set
Actual Time 7:17 AM EST 5:42 PM EST
Civil Twilight 6:49 AM EST 6:09 PM EST
Nautical Twilight 6:18 AM EST 6:41 PM EST
Astronomical Twilight 5:47 AM EST 7:12 PM EST
Moon 1:50 AM EST (2/4) 12:05 PM EST (2/4)
Length of Visible Light 11h 19m
Length of Day
10h 24m
Last Quarter, 37% of the Moon is Illuminated
Feb 4
Last Quarter
Feb 10
New
Feb 17
First Quarter
Feb 25
Full
Mar 4
Last Quarter

Hourly Weather History & Observations

Time (EST) Temp. Windchill Dew Point Humidity Pressure Visibility Wind Dir Wind Speed Gust Speed Precip Events Conditions
12:15 AM 28.6 °F 19.9 °F 10.6 °F 47% 29.96 in 10.0 mi WNW 9.2 mph - N/A   Clear
12:35 AM 28.8 °F 20.9 °F 11.1 °F 48% 29.96 in 10.0 mi WNW 8.1 mph - N/A   Clear
12:55 AM 27.5 °F 23.6 °F 10.9 °F 50% 29.96 in 10.0 mi West 3.5 mph - N/A   Clear
1:15 AM 27.7 °F - 9.9 °F 47% 29.97 in 10.0 mi Calm Calm - N/A   Clear
1:35 AM 27.0 °F - 10.2 °F 49% 29.96 in 10.0 mi Calm Calm - N/A   Clear
1:55 AM 26.4 °F - 10.8 °F 52% 29.97 in 10.0 mi Calm Calm - N/A   Clear
2:15 AM 26.2 °F - 10.8 °F 52% 29.97 in 10.0 mi Calm Calm - N/A   Clear
2:55 AM 23.2 °F 17.2 °F 12.0 °F 62% 29.97 in 10.0 mi WNW 4.6 mph - N/A   Clear
3:15 AM 23.5 °F 17.6 °F 12.0 °F 61% 29.96 in 10.0 mi WNW 4.6 mph - N/A   Clear
3:35 AM 24.3 °F 17.3 °F 12.0 °F 60% 29.96 in 10.0 mi WNW 5.8 mph - N/A   Clear
3:55 AM 25.9 °F 19.2 °F 11.3 °F 54% 29.96 in 10.0 mi WNW 5.8 mph - N/A   Clear
4:15 AM 25.7 °F 21.5 °F 10.9 °F 54% 29.96 in 10.0 mi West 3.5 mph - N/A   Clear
6:15 AM 24.4 °F 16.5 °F 12.7 °F 61% 30.00 in 10.0 mi SSW 6.9 mph - N/A   Clear
6:35 AM 23.0 °F 18.4 °F 12.7 °F 65% 30.00 in 10.0 mi SW 3.5 mph - N/A   Clear
6:55 AM 24.1 °F - 12.0 °F 60% 30.02 in 10.0 mi Calm Calm - N/A   Clear
7:15 AM 23.9 °F - 12.4 °F 62% 30.03 in 10.0 mi Calm Calm - N/A   Clear
7:35 AM 23.4 °F 16.2 °F 13.5 °F 66% 30.03 in 10.0 mi South 5.8 mph - N/A   Clear
7:55 AM 23.9 °F - 14.0 °F 66% 30.03 in 10.0 mi Calm Calm - N/A   Clear
8:15 AM 26.1 °F 19.4 °F 14.2 °F 61% 30.05 in 10.0 mi SW 5.8 mph - N/A   Clear
8:55 AM 28.2 °F 22.0 °F 14.7 °F 57% 30.07 in 10.0 mi SSW 5.8 mph - N/A   Clear
9:15 AM 29.5 °F 22.5 °F 13.8 °F 52% 30.06 in 10.0 mi SSW 6.9 mph - N/A   Clear
9:35 AM 30.9 °F 23.5 °F 13.3 °F 48% 30.06 in 10.0 mi SSW 8.1 mph - N/A   Clear
9:55 AM 31.8 °F 23.3 °F 12.0 °F 44% 30.05 in 10.0 mi SW 10.4 mph - N/A   Clear
10:15 AM 32.0 °F 24.8 °F 11.8 °F 43% 30.05 in 10.0 mi SW 8.1 mph - N/A   Clear
10:35 AM 32.4 °F 24.0 °F 11.7 °F 42% 30.05 in 10.0 mi SW 10.4 mph - N/A   Clear
10:55 AM 32.7 °F 23.9 °F 11.7 °F 42% 30.05 in 10.0 mi SW 11.5 mph - N/A   Clear
11:15 AM 33.1 °F 24.4 °F 12.9 °F 43% 30.04 in 10.0 mi SW 11.5 mph - N/A   Clear
11:35 AM 33.3 °F 24.6 °F 13.1 °F 43% 30.04 in 7.0 mi SSW 11.5 mph - N/A Snow Light Snow
11:55 AM 33.4 °F 25.4 °F 13.3 °F 43% 30.03 in 7.0 mi SSW 10.4 mph - N/A Snow Light Snow
12:15 PM 33.8 °F 26.4 °F 13.6 °F 44% 30.02 in 5.0 mi South 9.2 mph 16.1 mph N/A Snow Light Snow
12:35 PM 34.3 °F 27.7 °F 14.5 °F 44% 30.01 in 7.0 mi SSW 8.1 mph - N/A Snow Light Snow
12:55 PM 35.1 °F 26.9 °F 14.5 °F 43% 29.99 in 10.0 mi SW 11.5 mph - N/A   Clear
1:15 PM 36.3 °F 28.4 °F 15.4 °F 43% 29.98 in 7.0 mi SW 11.5 mph - N/A Snow Light Snow
1:35 PM 35.8 °F 28.8 °F 15.4 °F 44% 29.97 in 7.0 mi SW 9.2 mph 17.3 mph N/A Snow Light Snow
1:55 PM 36.1 °F 27.7 °F 15.8 °F 44% 29.96 in 5.0 mi SSW 12.7 mph - N/A Snow Light Snow
2:15 PM 36.3 °F 28.9 °F 16.5 °F 45% 29.95 in 7.0 mi SW 10.4 mph - N/A Snow Light Snow
2:35 PM 36.7 °F 29.4 °F 16.7 °F 44% 29.95 in 10.0 mi South 10.4 mph - N/A   Clear
2:55 PM 37.4 °F 30.3 °F 17.1 °F 44% 29.94 in 10.0 mi South 10.4 mph - N/A   Clear
3:15 PM 37.8 °F 29.0 °F 17.2 °F 43% 29.93 in 10.0 mi SSE 15.0 mph - N/A   Clear
3:35 PM 37.6 °F 31.6 °F 17.6 °F 44% 29.93 in 10.0 mi South 8.1 mph - N/A   Clear
3:55 PM 38.7 °F 32.4 °F 18.1 °F 44% 29.93 in 10.0 mi South 9.2 mph - N/A   Clear
4:15 PM 39.2 °F 33.6 °F 18.1 °F 43% 29.92 in 10.0 mi South 8.1 mph - N/A   Clear
4:35 PM 38.8 °F 33.2 °F 18.5 °F 44% 29.91 in 10.0 mi South 8.1 mph - N/A   Scattered Clouds
4:55 PM 37.8 °F 32.5 °F 18.5 °F 46% 29.91 in 10.0 mi South 6.9 mph - N/A   Clear
5:15 PM 36.9 °F 33.1 °F 18.3 °F 47% 29.91 in 10.0 mi South 4.6 mph - N/A   Scattered Clouds
5:35 PM 35.6 °F 29.9 °F 18.3 °F 50% 29.91 in 10.0 mi South 6.9 mph - N/A   Scattered Clouds
5:55 PM 35.1 °F 31.0 °F 18.3 °F 51% 29.91 in 10.0 mi South 4.6 mph - N/A   Scattered Clouds
6:15 PM 36.1 °F 31.4 °F 18.7 °F 49% 29.92 in 10.0 mi SSW 5.8 mph - N/A   Scattered Clouds
6:35 PM 36.9 °F 29.1 °F 19.4 °F 49% 29.92 in 10.0 mi SSW 11.5 mph - N/A   Mostly Cloudy
6:55 PM 36.7 °F 31.2 °F 19.4 °F 50% 29.93 in 10.0 mi SSW 6.9 mph - N/A   Scattered Clouds
7:15 PM 35.1 °F 31.0 °F 19.4 °F 53% 29.92 in 10.0 mi South 4.6 mph - N/A   Scattered Clouds
7:35 PM 34.7 °F 29.6 °F 19.4 °F 54% 29.92 in 10.0 mi South 5.8 mph - N/A   Clear
7:55 PM 34.7 °F 30.6 °F 19.2 °F 53% 29.92 in 10.0 mi SSW 4.6 mph - N/A   Mostly Cloudy
8:15 PM 33.6 °F 28.4 °F 19.4 °F 56% 29.91 in 10.0 mi South 5.8 mph - N/A   Mostly Cloudy
8:35 PM 33.6 °F 28.4 °F 19.8 °F 57% 29.90 in 10.0 mi South 5.8 mph - N/A   Clear
8:55 PM 33.6 °F 30.6 °F 19.8 °F 57% 29.91 in 10.0 mi SW 3.5 mph - N/A   Clear
9:15 PM 33.3 °F 27.1 °F 20.3 °F 59% 29.90 in 10.0 mi South 6.9 mph - N/A   Scattered Clouds
9:35 PM 36.5 °F 31.8 °F 20.8 °F 53% 29.91 in 10.0 mi South 5.8 mph - N/A   Mostly Cloudy
9:55 PM 35.8 °F 30.1 °F 20.7 °F 54% 29.90 in 10.0 mi South 6.9 mph - N/A   Mostly Cloudy
10:15 PM 37.0 °F 31.6 °F 21.2 °F 53% 29.90 in 10.0 mi South 6.9 mph - N/A   Mostly Cloudy
10:35 PM 38.1 °F 32.9 °F 21.4 °F 51% 29.90 in 10.0 mi South 6.9 mph - N/A   Overcast
10:55 PM 39.2 °F 31.6 °F 28.4 °F 65% 29.90 in 10.0 mi SW 12.7 mph - N/A   Overcast
11:15 PM 38.7 °F 32.4 °F 27.5 °F 64% 29.89 in 10.0 mi South 9.2 mph - N/A   Overcast
11:35 PM 38.5 °F 31.6 °F 29.7 °F 71% 29.88 in 10.0 mi SSW 10.4 mph - N/A   Mostly Cloudy
11:55 PM 38.3 °F 31.4 °F 30.0 °F 72% 29.87 in 10.0 mi South 10.4 mph - N/A   Scattered Clouds